COSMOS 2251 DEB, 36467

Orbit data source: Space-Track

COSMOS 2251 DEB, 36467 is space debris in LEO originally from a launch on Wed, 16 Jun 1993 UTC launched from the Plesetsk Missile And Space Complex (PKMTR). The debris from Iridium 33, an American commercial communications satellite, has been tracked extensively since its accidental collision with the defunct Russian satellite Cosmos 2251 in 2009. This event, occurring at high speed in low Earth orbit (LEO), generated thousands of pieces of space debris, significantly increasing the risk of further collisions. The Iridium 33 debris cloud has impacted space traffic management and orbital debris mitigation strategies, making it a subject of ongoing study in space situational awareness.

Loading next visibility...
Identifier
36467, 1993-036BBS
Orbit
LEO
Country
Flag of CISCIS
Related business
Manufacturer
Unknown
Mission
Spacecraft
Bus & Motor
Unknown
Mass
Unknown
Launch date (UTC)
1993-06-16 (33 years ago)
Launch vehicle
Unknown
Launch site
Plesetsk Missile And Space Complex (PKMTR)
Object type
Payload
Rocket body
Debris
Shape & HBR
Unknown shape, 1.1 m
Radar Cross Section
Medium (>0.1 m² and <1 m²)

Expand to show TLE details & history
Last TLE update: 1 month ago

TLE from 1 month ago
0 COSMOS 2251 DEB
1 36467U 93036BBS 26198.82908655  .00031217  00000-0  20492-2 0  9999
2 36467  73.8180 246.4508 0020872 124.9429 355.8968 15.07330777682992
Epoch: 2026-07-17T19:53Z
TLE epoch observation values (Epoch: 2026-07-17T19:53:53.077Z)
Latitude
55.67422°
Longitude
167.32683°
Altitude
538.855 km
Speed
7.607 km/s
True Right ascension
02h 45m 47s
True Declination
55° 30' 32"
Sunlit
Object was in daylight at epoch
Visualization orbit readout
Latitude
Unknown
Longitude
Unknown
Altitude
Unknown
Speed
Unknown
Apparent Right ascension
Unknown
Apparent Declination
Unknown
Sunlit
N/A
Visualization observer readout
Local Sidereal Time
23:47:52
Azimuth
Unknown
Elevation
Unknown
Doppler factor
Unknown
Orbital elements
Apogee altitude
556.369 km
Perigee altitude
527.482 km
Semi-major axis
6,920.062 km
Eccentricity
0.00209
Inclination
73.818°
RAAN
246.4508°
Arg. of periapsis
124.9429°
True anomaly
355.87964°
Mean anomaly
355.8968°
Eccentric anomaly
355.88823°
Mean motion
3.77032 °/min
Orbital period
95.48 mins
BSTAR
0.0020492
Loading maneuver chart data...
Computing Atmospheric mass density...
Loading historical data...
Loading historical data...
Loading historical data...
Loading historical data...
Loading historical data...
Loading historical data...
Loading historical data...

Documentation

Showing up to 5 results
|